Вернуться в каталог

REX 2

АктивенНаукаPO
NORAD 23814·PAYLOAD·🇺🇸 United States

Запущен Mar 9, 1996 с Vandenberg Space Force Base

Loading…

Ближайшие Пролёты (ближайшие 24 часа)

TLE

СвежийSource: Space-Track

Эпоха: Sep 14, 2026, 04:53 UTC

1 23814U 96014A   26257.20376454  .00000118  00000-0  45089-4 0  9991
2 23814  90.0142 341.3423 0020976 204.2140 155.8070 14.25380114585871

Отслеживайте REX 2 в реальном времени с AllMySat

Download on the App Store